Location: Lecco
(45.8566°N, 9.3977°E)
Time: 21:03:06
(UTC+02:00)

Courier 1B Rocket - Pass Details

Date: 02 September 2019
Orbit: 920 x 1202 km, 28.2° (Epoch: 22 September)

Event Time Altitude Azimuth Distance (km) Brightness Sun altitude
Rises 23:49:24 0° 213° (SSW) 3,559 - -32.5°
Reaches altitude 10° 23:54:10 10° 181° (S) 2,656 - -32.9°
Maximum altitude 23:56:03 11° 163° (SSE) 2,578 - -33.0°
Drops below altitude 10° 23:57:57 10° 146° (SE) 2,700 - -33.2°
Sets 00:02:56 0° 114° (ESE) 3,721 - -33.5°
